This is the latest recevied weather packets stored in our database for station/object EA6AMR-10. If no packets are shown the sender has not sent any weather packets the latest 10 day(s).
| Time | Temp. | Humidity | Pressure | Rain* | Wind** | Luminosity | Snow |
|---|---|---|---|---|---|---|---|
| 1777522470 | 19.44° C | 49% | 1013.8 hPa | - | - | - | - |
| 1777521570 | 19.44° C | 49% | 1013.7 hPa | - | - | - | - |
| 1777520669 | 19.44° C | 49% | 1013.5 hPa | - | - | - | - |
| 1777519769 | 19.44° C | 49% | 1013.6 hPa | - | - | - | - |
| 1777518869 | 19.44° C | 49% | 1013.8 hPa | - | - | - | - |
| 1777517969 | 19.44° C | 49% | 1013.6 hPa | - | - | - | - |
| 1777517068 | 19.44° C | 49% | 1013.7 hPa | - | - | - | - |
| 1777516173 | 19.44° C | 48% | 1013.7 hPa | - | - | - | - |
| 1777515273 | 19.44° C | 48% | 1013.8 hPa | - | - | - | - |
| 1777514373 | 18.89° C | 48% | 1013.6 hPa | - | - | - | - |
| 1777513472 | 18.89° C | 48% | 1013.4 hPa | - | - | - | - |
| 1777512572 | 18.33° C | 48% | 1013.5 hPa | - | - | - | - |
| 1777511672 | 18.33° C | 48% | 1013.7 hPa | - | - | - | - |
| 1777510772 | 18.33° C | 49% | 1013.9 hPa | - | - | - | - |
| 1777509872 | 17.78° C | 49% | 1013.8 hPa | - | - | - | - |
| 1777508971 | 18.89° C | 48% | 1013.8 hPa | - | - | - | - |
| 1777508071 | 18.89° C | 48% | 1013.7 hPa | - | - | - | - |
| 1777507171 | 18.33° C | 47% | 1013.8 hPa | - | - | - | - |
| 1777506271 | 17.78° C | 48% | 1013.8 hPa | - | - | - | - |
| 1777505371 | 17.22° C | 48% | 1013.7 hPa | - | - | - | - |
| 1777504470 | 17.22° C | 48% | 1013.7 hPa | - | - | - | - |
| 1777503570 | 17.78° C | 48% | 1013.8 hPa | - | - | - | - |
| 1777502670 | 18.33° C | 47% | 1013.7 hPa | - | - | - | - |
| 1777501770 | 18.89° C | 47% | 1013.7 hPa | - | - | - | - |
| 1777500870 | 18.89° C | 47% | 1013.7 hPa | - | - | - | - |
* Rain since midnight (hover to see other rain measurements)
** Current wind speed in m/s (hover to see current wind gust speed)